Regional Weather Roundup
Issued by NWS

Home | Current Version | Previous Version | Text Only | Print | Product List | Glossary On
Versions: 1 2 3 4 5 6 7 8 9 10 11 12 13 14 15 16 17 18 19 20 21 22 23 24 25 26 27
000
ASUS46 KSEW 220710
RWRWA

WASHINGTON REGIONAL WEATHER ROUNDUP
NATIONAL WEATHER SERVICE SEATTLE WA
1200 AM PDT SUN APR 22 2018

NOTE:"FAIR" INDICATES FEW OR NO CLOUDS BELOW 12,000 FEET WITH NO
SIGNIFICANT WEATHER AND/OR OBSTRUCTIONS TO VISIBILITY.

WAZ507-509-555>559-220800-
SEATTLE, TACOMA, EVERETT, AND VICINITY

CITY           SKY/WX    TMP DP  RH WIND       PRES   REMARKS
EVERETT        PTCLDY    44  40  85 NW8       30.42S
BOEING FIELD   MOCLDY    48  36  63 VRB3      30.42S
RENTON         PTCLDY    48  38  68 VRB5      30.41F
SEATAC AIRPORT PTCLDY    48  36  63 NE15      30.40F
JBLM-MCCHORD   PTCLDY    44  42  91 CALM      30.40F
PUYALLUP       FAIR      41  39  93 CALM      30.40S
BREMERTON      MOCLDY    43  39  86 NE7       30.41S
JBLM-FT LEWIS  PTCLDY    44  40  88 CALM      30.40S
TACOMA NARROWS PTCLDY    47  37  68 NE7       30.40F
$$

WAZ001-503-506-510-514-515-220800-
NORTH INTERIOR

CITY           SKY/WX    TMP DP  RH WIND       PRES   REMARKS
BELLINGHAM     CLEAR     42  37  82 CALM      30.41S
FRIDAY HARBOR  CLEAR     44  37  76 W6        30.42S
EASTSOUND      CLEAR     43  39  87 CALM      30.41S
PORT ANGELES   PTCLDY    41  36  82 SW8       30.44S
EDIZ HOOK      FAIR      45  37  75 W12       30.43F
PORT TOWNSEND  FAIR      45  39  81 W8        30.43F
NAS WHIDBEY    MOCLDY    49  41  74 W17       30.45F
ARLINGTON      CLEAR     37  35  92 N6        30.43F
BURLINGTON     PTCLDY    43  37  81 CALM      30.42F
$$

WAZ020-022-039-040-504-511-512-220800-
SOUTHWEST INTERIOR

CITY           SKY/WX    TMP DP  RH WIND       PRES   REMARKS
SHELTON        PTCLDY    39  34  82 CALM      30.39S
OLYMPIA        CLEAR     39  35  86 CALM      30.40F
CHEHALIS         N/A     41  39  93 W3        30.41S
KELSO          CLEAR     43  38  82 CALM      30.41F
VANCOUVER      CLEAR     48  39  71 NW6       30.38S
SCAPPOOSE, OR  CLEAR     45  37  73 NW5       30.39S
PORTLAND, OR   CLEAR     48  38  68 NW12      30.38F
$$

WAZ021-516-517-220800-
WASHINGTON COAST

CITY           SKY/WX    TMP DP  RH WIND       PRES   REMARKS
FORKS          MOCLDY    38  36  92 CALM      30.44F
HOQUIAM        PTCLDY    45  38  76 NW10      30.42F
ASTORIA, OR    PTCLDY    41  37  86 S3        30.42F
$$

WAZ019-023-024-040-567>569-220800-
CASCADE MOUNTAINS AND COLUMBIA GORGE

CITY           SKY/WX    TMP DP  RH WIND       PRES   REMARKS
STAMPEDE PASS  NOT AVBL
TROUTDALE, OR  CLEAR     48  38  68 W3        30.37F
HOOD RIVER, OR SUNNY     45  32  61 CALM      30.32F
THE DALLES, OR CLEAR     48  33  56 NW6       30.31F
$$

WAZ026-027-041>044-520-521-220800-
EAST SLOPES

CITY           SKY/WX    TMP DP  RH WIND       PRES   REMARKS
OMAK           CLEAR     39  26  59 NW7       30.26R
WENATCHEE      PTCLDY    44  23  43 W8        30.28S
ELLENSBURG     PTCLDY    41  30  65 NW14      30.29S
YAKIMA         CLEAR     47  31  53 NW7       30.30F
SUNNYSIDE ARPT SUNNY     37  30  77 CALM      30.31S
YAKIMA TC      FAIR      43  26  51 CALM      30.28F
$$

WAZ028-034-035-220800-
COLUMBIA BASIN

CITY           SKY/WX    TMP DP  RH WIND       PRES   REMARKS
EPHRATA        MOCLDY    45  24  43 W13       30.26F
MOSES LAKE     PTCLDY    42  25  50 W9        30.27F
PASCO          CLEAR     47  30  51 SW5       30.31S
RICHLAND ARPT  SUNNY     44  32  61 CALM      30.31S
HERMISTON, OR  PTCLDY    39  30  70 S7        30.31R
$$

WAZ036>038-220800-
NORTHEAST WASHINGTON

CITY           SKY/WX    TMP DP  RH WIND       PRES   REMARKS
SPOKANE GEIGER PTCLDY    40  27  59 SW14      30.21S
SPOKANE FELTS  CLEAR     39  27  62 CALM      30.22S
FAIRCHILD AFB  CLEAR     36  26  67 SW7       30.20S
COEURDALENE,ID CLEAR     42  27  55 SE5       30.21S
DEER PARK      CLEAR     33  25  72 S3        30.21R
$$

WAZ029>033-220800-
SOUTHEAST WASHINGTON

CITY           SKY/WX    TMP DP  RH WIND       PRES   REMARKS
PULLMAN        CLEAR     38  23  55 SW3       30.26S
LEWISTON, ID   CLEAR     49  25  39 W8        30.26S
WALLA WALLA    CLEAR     45  29  53 S8        30.29S
PENDLETON, OR  CLEAR     44  26  49 CALM      30.30R
$$




USA.gov is the U.S. government's official web portal to all federal, state and local government web resources and services.